Other Public Products
Issued by NWS Grand Forks, ND

Home | Current Version | Previous Version | Graphics & Text | Print | Product List | Glossary On
Versions: 1 2 3 4 5 6 7 8 9 10 11 12 13 14 15 16 17 18 19 20 21 22 23 24 25 26 27 28 29 30 31 32 33 34 35 36 37 38 39 40 41 42 43 44 45 46 47 48 49 50
000
FPUS83 KFGF 182310
OPUFGF
PRAIRIE TO PINES WEATHER ROUNDUP
NATIONAL WEATHER SERVICE EASTERN NORTH DAKOTA/GRAND FORKS ND
500 PM CST THU DEC 18 2014

 **SATELLITE DATA USED TO AUGMENT SKY COVER AT AUTOMATED STATIONS**
 *****  WEATHER ACROSS EASTERN NORTH DAKOTA  *****

CITY           SKY/WX    TMP DP  RH WIND       PRES   REMARKS
GRAND FORKS    CLOUDY    19  14  81 S12       30.18R WCI   7
GRAND FORKS AF CLOUDY    18  17  95 S13       30.17S WCI   5
GRAND CITY NWS NOT AVBL
BUXTON         NOT AVBL
DEVILS LAKE    CLOUDY    19  12  73 S13       30.06S WCI   7
FARGO          CLOUDY    20  14  77 SE10      30.19S WCI   9
WAHPETON ARPT  CLOUDY    19  16  86 SE9       30.20S WCI   9
$$

 *****  WEATHER ACROSS CENTRAL AND WESTERN NORTH DAKOTA  *****

CITY           SKY/WX    TMP DP  RH WIND       PRES   REMARKS
JAMESTOWN      CLOUDY    22  19  89 S12       30.08S WCI  10
BISMARCK       CLOUDY    27  23  85 S6        30.02F WCI  20
MINOT          CLOUDY    23  18  81 SE6       29.99S WCI  16
MINOT AFB      CLOUDY    22  22  98 SE6       29.99S WCI  15
GARRISON         N/A     25  22  88 CALM      29.98S
WILLISTON      CLOUDY    28  24  85 SW7       29.95R WCI  21
DICKINSON      CLEAR     30  24  78 CALM      29.92S
HETTINGER      CLEAR     29  25  85 S5        29.96R WCI  24
$$

 *****  OTHER OBSERVATIONS NORTHEAST NORTH DAKOTA  *****

CITY           SKY/WX    TMP DP  RH WIND       PRES   REMARKS
WALHALLA         N/A     18  18 100 S10       30.14S WCI   6
LANGDON        CLOUDY    19  16  86 S10       30.07S WCI   8
CAVALIER       CLOUDY    19  16  86 S9        30.15F WCI   9
GRAFTON        NOT AVBL
CANDO          CLOUDY    19  18  93 S8        30.07S WCI   9
FORT TOTTEN      N/A     19  17  91 SE7       29.95S WCI  10
ROLLA          CLOUDY    18  18 100 S9        30.04R WCI   6
RUGBY          CLOUDY    19  19 100 SE6       30.04R FOG     WCI  11
 ***** THE ABOVE OBSERVATIONS ARE NON NWS ARE NOT QUALITY
        CONTROLLED AND MAY MIS-REPORT RAIN FOR SNOW...
$$

 *****  OTHER OBSERVATIONS SOUTHEAST NORTH DAKOTA *****

CITY           SKY/WX    TMP DP  RH WIND       PRES   REMARKS
COOPERSTOWN    NOT AVBL
VALLEY CITY    CLOUDY    19  19 100 SE10      30.12S WCI   8
OAKES            N/A     23  23 100 S7        30.13S WCI  15
GWINNER        CLOUDY    23  23 100 MISG      30.15S
SHEYENNE NWR     N/A     20  15  81 SE7       29.95S WCI  11
BUFFALO        NOT AVBL
WYNDMERE         N/A     19  16  86 SE7         N/A  WCI  10
 ***** THE ABOVE OBSERVATIONS ARE NON NWS ARE NOT QUALITY
       CONTROLLED AND MAY MIS-REPORT RAIN FOR SNOW...
$$

  *****  WEATHER ACROSS NORTHERN MINNESOTA  *****

CITY           SKY/WX    TMP DP  RH WIND       PRES   REMARKS
FLAG ISLAND    PTCLDY    16  12  86 S13       30.19S WCI   2
WARROAD        CLEAR     18  12  79 SE8       30.20S WCI   7
ROSEAU         PTCLDY    18  10  73 S7        30.19F WCI   8
HALLOCK        CLOUDY    19  16  86 S13       30.17F WCI   7
THF RVR FALLS  CLOUDY    19  14  79 SE10      30.18S WCI   8
HALSTAD          N/A     20  14  77 S10         N/A  WCI   9
FOSSTON        CLOUDY    18  16  93 SE6       30.18S WCI   9
BAUDETTE       CLOUDY    18  12  77 S7        30.21S WCI   9
WASKISH        CLOUDY    19  16  86 CALM      30.21F
CROOKSTON      CLOUDY    19  16  86 S9        30.20R WCI   9
$$
  *****  WEATHER ACROSS CENTRAL AND WEST MINNESOTA  *****

CITY           SKY/WX    TMP DP  RH WIND       PRES   REMARKS
BEMIDJI        CLOUDY    17  13  84 SE8       30.19S WCI   7
PARK RAPIDS    MOCLDY    18  12  77 SE9       30.19S WCI   7
WADENA         CLOUDY    18  12  79 NW8       30.20S WCI   7
DETROIT LAKES  MOCLDY    19  18  93 SE8       30.19R WCI   9
MOORHEAD       CLOUDY    19  18  93 S12       30.20S WCI   7
FERGUS FALLS   CLOUDY    19  12  73 SE9       30.23S WCI   9
ELBOW LAKE     CLOUDY    18  14  85 SE10      30.19S WCI   6
MORRIS MN      CLOUDY    19  16  86 SE12      30.20S WCI   7
STAPLES        CLOUDY    18  12  79 SE3       30.21S
WHEATON        CLOUDY    18  16  93 SE10      30.22S WCI   6
$$
  *****  WEATHER ELSEWHERE ACROSS MINNESOTA  *****

CITY           SKY/WX    TMP DP  RH WIND       PRES   REMARKS
DULUTH         CLOUDY    24  16  71 E6        30.22R WCI  17
INTRNTL FALLS  CLOUDY    20  15  81 SE5       30.23S WCI  13
ELY            CLOUDY    23  19  86 CALM      30.23S
CLOQUET        CLOUDY    25  18  74 CALM      30.23R
BRAINERD       CLOUDY    19  15  84 S5        30.24S WCI  12
HIBBING        CLOUDY    23  17  78 CALM      30.22S
ALEXANDRIA     CLOUDY    19  12  74 SE8       30.21R WCI   9
SAINT CLOUD    CLOUDY    21  14  74 E3        30.25S
MINNEAPOLIS    CLOUDY    20  15  81 E7        30.27S WCI  11
$$

  *****  WEATHER ACROSS SOUTH DAKOTA  *****

CITY           SKY/WX    TMP DP  RH WIND       PRES   REMARKS
SIOUX FALLS    CLOUDY    27  22  81 SW3       30.18R
BROOKINGS      NOT AVBL
WATERTOWN      CLOUDY    24  20  84 S7        30.13S WCI  16
HURON          CLOUDY    26  22  84 S8        30.14S WCI  18
SISSETON         N/A     20  17  88 S10       30.17S WCI   9
ABERDEEN       CLOUDY    25  21  85 S12       30.13S WCI  14
MITCHELL       CLOUDY    28  24  85 S7        30.16S WCI  21
PIERRE         CLOUDY    28  24  85 S7        30.06S WCI  21
MOBRIDGE       CLOUDY    29  26  89 S9        30.02R WCI  20
RAPID CITY     CLEAR     40  27  59 CALM      29.98R
$$

  *****  SOME WEATHER IN NEARBY STATES *****

CITY           SKY/WX    TMP DP  RH WIND       PRES   REMARKS
GLASGOW MT     CLEAR     30  24  78 N3        29.90S
GREAT FALLS MT PTCLDY    37  26  64 SW13      29.90R
CHEYENNE WY    MOCLDY    38  15  39 N9        30.01R
SCOTTSBLUFF NE MOCLDY    18  15  88 CALM      30.03S FOG
OMAHA NE       CLOUDY    31  26  82 S3        30.23R
DES MOINES IA  CLOUDY    30  21  69 E5        30.25R
DAVENPORT IA   MOCLDY    24  17  74 NW5       30.27R WCI  18
CHICAGO IL     CLOUDY    28  19  69 N6        30.23R WCI  22
EAU CLAIRE WI  CLOUDY    24  18  77 CALM      30.26R
LA CROSSE WI   CLOUDY    26  18  71 CALM      30.28R
$$

  *****  SOME NATIONAL WEATHER *****

CITY           SKY/WX    TMP DP  RH WIND       PRES   REMARKS
LA GUARDIA NY  MOCLDY    39  26  59 NW16G22   29.96S
RALEIGH NC     MOCLDY    43  26  51 CALM      30.10R
ATLANTA GA     MOCLDY    52  32  46 NW8       30.11R
NEW ORLEANS LA CLOUDY    64  54  69 E6        30.09R
OKLAHOMA CITY  CLOUDY    43  39  86 NE7       30.14R FOG
ALBUQUERQUE NM CLOUDY    44  26  49 N8        30.09R
SALT LAKE CITY MOCLDY    45  29  53 N6        30.13R
LOS ANGELES CA PTSUNNY   60  49  66 CALM      30.14S
BOISE ID       CLOUDY    47  32  56 SE9       30.08R
SEATTLE WA     LGT RAIN  48  43  82 S5        29.82F
$$

*** WEATHER ACROSS MANITOBA...SASKATCHEWAN AND ONTARIO ***
                ***ONTARIO***

CITY           SKY/WX    TMP DP  RH WIND       PRES   REMARKS
GERALDTON      CLEAR      7   3  85 SW3       30.26S
THUNDER BAY    PTCLDY    10   9  92 W5        30.31R WCI   2
SIOUX LOOKOUT  FLURRIES  10   9  92 SE5       30.25S WCI   2
TORONTO        CLOUDY    28  21  74 NW16      30.10R WCI  17
BIG TROUT LK   CLEAR      5   1  85 SW6       30.19S WCI  -6
PICKLE LAKE    PTCLDY     7   1  78 S7        30.23S WCI  -5
DRYDEN         CLOUDY    16  14  93 S6        30.22S WCI   7
KENORA         NOT AVBL
$$
                *** MANITOBA***

CITY           SKY/WX    TMP DP  RH WIND       PRES   REMARKS
BRANDON        CLOUDY    14  12  92 E5        30.05F WCI   6
DAUPHIN        CLEAR     10   7  85 VRB2      30.05S
ISLAND LAKE    CLEAR     12  10  92 S6        30.13R WCI   3
PILOT MOUND      N/A     19  16  86 S9          N/A  WCI   9
THE PAS        LGT SNOW  12  10  92 SE10      29.99R WCI  -1
THOMPSON       FLURRIES   7   3  85 S6        30.01S WCI  -3
WINNIPEG       MOCLDY    18  12  79 S14       30.17S WCI   4
LYNN LAKE      LGT SNOW  12  10  92 SW3       29.90S
CHURCHILL      CRYSTALS   1  -2  85 SW6       30.01S WCI -10
GILLAM         PTCLDY     1  -2  85 SW6       30.05S WCI -10
$$
                ***SASKATCHEWAN***

CITY           SKY/WX    TMP DP  RH WIND       PRES   REMARKS
ESTEVAN        FLURRIES  23  21  93 SW8       29.94S WCI  14
KINDERSLEY     FOG       12   9  85 N5        29.85S VSB 1/2 WCI   4
LLOYDMINSTER   NOT AVBL
PRINCE ALBERT  NOT AVBL
REGINA         CLOUDY    25  25 100 S7        29.90S WCI  17


USA.gov is the U.S. government's official web portal to all federal, state and local government web resources and services.